星链-4295 (STARLINK-4295 )

导读

STARLINK-4295是美国SpaceX星链(Starlink)项目中的一颗低轨互联网通信卫星,于2022年7月7日发射升空,属于星链Gen2星座中的V1.5型卫星,质量约297千克,运行在约550公里高度的近地轨道。 作为星链大规模星座的组成部分,它搭载激光星间链路,可实现卫星间直接通信,助力全球高速低轨互联网覆盖,提升网络带宽与覆盖范围,支撑星链星座的全球宽带服务能力。

Basic Information
目录编号:
52996
目录名称:
STARLINK-4295
国际标识:
2022-076L
轨道中心:
EARTH
卫星名称:
星链-4295
卫星全名:
星链-4295 (STARLINK-4295 )
卫星状态:
在轨 (已飞行1441 天)
发射日期:
2022-07-07 UTC
国别 :
美国 (US)
星等 :
--
Orbit Information
数据来源 国际轨道数据 AOE轨道数据
星历时间 2026-06-17T12:00:02+0800
9小时前
查看轨道信息
2026-06-11T05:00:00+0800
6天前
查看轨道信息
半长轴 6907.161km 6917.907km
偏心率 0.0001206 0.0001253
轨道倾角 53.158° 53.160°
近地点辐角 42.844° 84.052°
升交点赤经 7.718° 36.020°
平近点角 59.151° 13.688°
近地点 528.19km 538.903km
远地点 529.858km 540.637km
周期 95.216分钟 95.438分钟
每日圈数 15.123539 15.088315
Detailed Information
固有亮度:
5
最大亮度:
2.5
卫星平台:
Starlink v1.5
覆盖范围:
全球
运营商:
太空探索技术公司
运营商所在国:
美国
制造商(研发单位):
太空探索技术公司
制造商所在国:
美国
使用方式:
暂无
Satellite Introduction
星链(Starlink)计划是由太空探索技术公司(SpaceX)提出的一个巨型低轨卫星互联网星座项目,计划在2019年至2024年间在太空搭建由约1.2万颗卫星组成的“星链”网络,其中1584颗将部署在地球上空550千米处的近地轨道,并从2020年开始工作。该卫星仍在工作。
2D Orbit Map
3D Orbit Map
Orbit Altitude Analysis Chart
Orbit Inclination Analysis Chart
Orbit Comprehensive Analysis Chart
View Comprehensive Chart